Tracking 31027 objects as of 19-Jul-2025
HD Live streaming from Space Station
objects crossing your sky now

JIELONG 3 DEB

Track JIELONG 3 DEB now!
10-day predictions


NORAD ID: 62575
Int'l Code: 2025-007A
Perigee: 643.7 km
Apogee: 660.1 km
Inclination: 55.0 °
Period: 97.6 minutes
Semi major axis: 7022 km
RCS: Unknown
Launch date: January 13, 2025
Source: People's Republic of China (PRC)
Launch site: Yellow Sea Launch Area, China (YSLA)

Note: This is SATELLITE DEBRIS
Your satellite tracking list
Your tracking list is empty




NASA's NSSDC Master Catalog

Two Line Element Set (TLE):
1 62575U 25007A   25199.09811995  .00000972  00000-0  17360-3 0  9995
2 62575  54.9844  89.8485 0011726 342.0475  18.0109 14.75127078 27443
Source of the keplerian elements: AFSPC